{"data":{"norad_id":64331,"epoch":"2026-09-19T23:26:35.814624Z","epoch_age_seconds":179585,"freshness":"STALE","line1":"1 64331U 25124Q   26262.97680341  .00009180  00000+0  34245-3 0  9995","line2":"2 64331  43.0005 104.5150 0002776 256.8568 103.1974 15.27605193 72552","mean_motion":15.27605193,"eccentricity":0.0002776,"inclination_deg":43.0005,"raan_deg":104.515,"arg_perigee_deg":256.8568,"mean_anomaly_deg":103.1974,"bstar":0.00034245,"rev_number":7255,"period_min":94.265194082775,"perigee_km":481.069015852,"apogee_km":484.87830449053,"semimajor_km":6861.1106601713,"source":"CELESTRAK","updated_at":"2026-09-21T09:00:35.313506Z"}}